Satellite: COMPASS
Catalog number: 32787
Epoch time:      12179.72234924
Element set:     339
Inclination:      097.7978 deg
RA of node:       240.8243 deg
Eccentricity:    0.0015921
Arg of perigee:   030.1381 deg
Mean anomaly:     330.0758 deg
Mean motion:   14.84050775 rev/day
Decay rate:       6.20e-06 rev/day^2
Epoch rev:           22537
Checksum:              302

Satellite: AAUSAT2
Catalog number: 32788
Epoch time:      12179.82449981
Element set:     331
Inclination:      097.8024 deg
RA of node:       241.3136 deg
Eccentricity:    0.0015798
Arg of perigee:   030.5398 deg
Mean anomaly:     329.6678 deg
Mean motion:   14.84379323 rev/day
Decay rate:      1.026e-05 rev/day^2
Epoch rev:           22541
Checksum:              326

Satellite: DO-64
Catalog number: 32789
Epoch time:      12180.19792601
Element set:     347
Inclination:      097.8105 deg
RA of node:       243.7404 deg
Eccentricity:    0.0015171
Arg of perigee:   025.7296 deg
Mean anomaly:     334.4670 deg
Mean motion:   14.85899748 rev/day
Decay rate:      1.418e-05 rev/day^2
Epoch rev:           22551
Checksum:              328

Satellite: CO-66
Catalog number: 32791
Epoch time:      12179.71612938
Element set:    0333
Inclination:      097.7992 deg
RA of node:       240.5525 deg
Eccentricity:    0.0016235
Arg of perigee:   030.1380 deg
Mean anomaly:     330.0765 deg
Mean motion:   14.83458241 rev/day
Decay rate:       2.55e-06 rev/day^2
Epoch rev:           22530
Checksum:              296

Satellite: RS-30
Catalog number: 32953
Epoch time:      12179.83379813
Element set:    0908
Inclination:      082.5034 deg
RA of node:       288.5175 deg
Eccentricity:    0.0017459
Arg of perigee:   285.4771 deg
Mean anomaly:     074.4385 deg
Mean motion:   12.43024897 rev/day
Decay rate:        1.0e-07 rev/day^2
Epoch rev:           18588
Checksum:              335

Satellite: TACSAT-3
Catalog number: 35001
Epoch time:      12121.72616188
Element set:    0001
Inclination:      040.4259 deg
RA of node:       351.8840 deg
Eccentricity:    0.0007146
Arg of perigee:   275.2650 deg
Mean anomaly:     085.0693 deg
Mean motion:   16.45157000 rev/day
Decay rate:  1.5204951e-01 rev/day^2
Epoch rev:           16699
Checksum:              280

Satellite: PHARMSAT
Catalog number: 35002
Epoch time:      12179.88257777
Element set:    0955
Inclination:      040.4549 deg
RA of node:       358.6355 deg
Eccentricity:    0.0011826
Arg of perigee:   322.7559 deg
Mean anomaly:     037.2441 deg
Mean motion:   15.88242503 rev/day
Decay rate:    1.17694e-03 rev/day^2
Epoch rev:           17602
Checksum:              321

Satellite: METEOR-M
Catalog number: 35865
Epoch time:      12179.77509445
Element set:    0539
Inclination:      098.6540 deg
RA of node:       233.9025 deg
Eccentricity:    0.0003096
Arg of perigee:   036.5275 deg
Mean anomaly:     323.6114 deg
Mean motion:   14.21864770 rev/day
Decay rate:       -2.7e-07 rev/day^2
Epoch rev:           14410
Checksum:              298

Satellite: RS-38
Catalog number: 35869
Epoch time:      12180.21683797
Element set:     547
Inclination:      098.6490 deg
RA of node:       234.3293 deg
Eccentricity:    0.0005202
Arg of perigee:   029.4334 deg
Mean anomaly:     330.7128 deg
Mean motion:   14.22076153 rev/day
Decay rate:        1.3e-07 rev/day^2
Epoch rev:           14418
Checksum:              297

Satellite: JUGNU
Catalog number: 37839
Epoch time:      12180.33590576
Element set:     174
Inclination:      019.9628 deg
RA of node:       290.7146 deg
Eccentricity:    0.0019060
Arg of perigee:   347.7570 deg
Mean anomaly:     012.2371 deg
Mean motion:   14.12064068 rev/day
Decay rate:       6.19e-06 rev/day^2
Epoch rev:            3682
Checksum:              297

Satellite: SRMSAT
Catalog number: 37841
Epoch time:      12180.40558951
Element set:     174
Inclination:      019.9751 deg
RA of node:       295.3847 deg
Eccentricity:    0.0012447
Arg of perigee:   312.4492 deg
Mean anomaly:     047.4860 deg
Mean motion:   14.10146381 rev/day
Decay rate:       2.64e-06 rev/day^2
Epoch rev:            3677
Checksum:              299

Satellite: RAX-2
Catalog number: 37853
Epoch time:      12179.73199085
Element set:    0220
Inclination:      101.7121 deg
RA of node:       224.7187 deg
Eccentricity:    0.0246763
Arg of perigee:   320.8583 deg
Mean anomaly:     037.4987 deg
Mean motion:   14.80114363 rev/day
Decay rate:      1.119e-05 rev/day^2
Epoch rev:           03596
Checksum:              308

Satellite: AUBIESAT
Catalog number: 37854
Epoch time:      12179.88673036
Element set:    0224
Inclination:      101.7142 deg
RA of node:       225.2069 deg
Eccentricity:    0.0246872
Arg of perigee:   319.7424 deg
Mean anomaly:     038.5722 deg
Mean motion:   14.80506546 rev/day
Decay rate:      1.362e-05 rev/day^2
Epoch rev:           03597
Checksum:              307

Satellite: HRBE
Catalog number: 37855
Epoch time:      12179.96901766
Element set:    0215
Inclination:      101.7152 deg
RA of node:       225.2814 deg
Eccentricity:    0.0248014
Arg of perigee:   319.6386 deg
Mean anomaly:     038.6636 deg
Mean motion:   14.80358982 rev/day
Decay rate:      1.497e-05 rev/day^2
Epoch rev:           03598
Checksum:              330

Satellite: RS-39
Catalog number: 38051
Epoch time:      12180.21547743
Element set:     464
Inclination:      051.6436 deg
RA of node:       107.2792 deg
Eccentricity:    0.0014375
Arg of perigee:   076.5288 deg
Mean anomaly:     080.3667 deg
Mean motion:   15.24480475 rev/day
Decay rate:      3.772e-05 rev/day^2
Epoch rev:            2365
Checksum:              311

Satellite: E-STAR
Catalog number: 38079
Epoch time:      12180.33239819
Element set:     313
Inclination:      069.4953 deg
RA of node:       290.1947 deg
Eccentricity:    0.0743362
Arg of perigee:   233.8864 deg
Mean anomaly:     119.1156 deg
Mean motion:   14.15272477 rev/day
Decay rate:     2.2569e-04 rev/day^2
Epoch rev:            1916
Checksum:              324

Satellite: GOLIAT
Catalog number: 38085
Epoch time:      12180.33166949
Element set:     289
Inclination:      069.4927 deg
RA of node:       290.4938 deg
Eccentricity:    0.0747931
Arg of perigee:   234.1012 deg
Mean anomaly:     118.8385 deg
Mean motion:   14.14292746 rev/day
Decay rate:     2.3281e-04 rev/day^2
Epoch rev:            1915
Checksum:              325

Satellite: HORYU-2
Catalog number: 38340
Epoch time:      12180.87468133
Element set:      44
Inclination:      098.1743 deg
RA of node:       120.6293 deg
Eccentricity:    0.0012057
Arg of perigee:   297.8543 deg
Mean anomaly:     062.1444 deg
Mean motion:   14.70003208 rev/day
Decay rate:       5.11e-06 rev/day^2
Epoch rev:             619
Checksum:              267

/EX




More information about the Keps mailing list